Date String (YYYY-MM-DD hh:mm:ss) UTC,Instrument flags,absolute air pressure of the measurement (hPa),sample flow rate (lpm),inlet stack bypass flow (lpm),air temperature of the measurement (°C),ambient temperature measured by the external sensor (°C),aerosol sample conditioner tube jacket temperature (°C),OPC LED temperature (°C),internal box temperature (°C),relative humidity of the measurement (%),span deviation,mass concentration of particles derived from Lorenz-Mie calculation of OPC scattering (μg/m³),mass concentration of particles derived from Lorenz-Mie calculation of OPC scattering (μg/m³),mass concentration of particles derived from Lorenz-Mie calculation of OPC scattering (μg/m³)
DateTimeUTC,F1_M11,P_M11,Q1_M11,Q2_M11,T1_M11,T2_M11,T3_M11,T4_M11,T5_M11,U1_M11,ZSPAN_M11,X0_M11,X2_M11,X1_M11
2023-08-17 08:00:00,SystemResetWarning,0833.7,5.00,000.00,028.2,024.2,000.0,036.5,029.5,22.6,0000.0,0009.43,0004.37,0004.01
2023-08-17 08:01:00,SystemResetWarning,0833.7,5.00,000.00,028.1,023.6,000.0,036.4,029.3,22.7,0000.0,0009.42,0004.39,0004.02
2023-08-17 08:02:00,SystemResetWarning,0833.7,5.01,000.00,028.0,023.8,000.0,036.4,029.3,22.8,0000.0,0009.29,0004.42,0004.03
2023-08-17 08:03:00,SystemResetWarning,0833.7,5.01,000.00,027.9,024.2,000.0,036.4,029.3,22.9,0000.0,0009.03,0004.44,0004.03
2023-08-17 08:04:00,SystemResetWarning,0833.7,5.00,000.00,027.9,024.7,000.0,036.4,029.4,23.0,0000.0,0008.80,0004.45,0004.03
2023-08-17 08:05:00,SystemResetWarning,0833.7,5.01,000.00,027.9,025.1,000.0,036.4,029.4,23.1,0000.0,0008.75,0004.46,0004.05
2023-08-17 08:06:00,SystemResetWarning,0833.8,5.00,000.00,027.9,025.5,000.0,036.4,029.5,23.1,0000.0,0008.84,0004.53,0004.11
2023-08-17 08:07:00,SystemResetWarning,0833.8,5.00,000.00,027.9,025.8,000.0,036.4,029.6,23.1,0000.0,0008.59,0004.63,0004.17
2023-08-17 08:08:00,SystemResetWarning,0833.8,5.00,000.00,027.9,026.1,000.0,036.4,029.7,23.1,0000.0,0008.40,0004.68,0004.23
2023-08-17 08:09:00,SystemResetWarning,0833.8,5.00,000.00,028.0,026.4,000.0,036.4,029.7,23.1,0000.0,0008.57,0004.72,0004.26
2023-08-17 08:10:00,SystemResetWarning,0833.8,5.00,000.00,028.0,026.6,000.0,036.5,029.8,23.1,0000.0,0008.51,0004.75,0004.29
2023-08-17 08:11:00,SystemResetWarning,0833.8,5.00,000.00,028.1,026.7,000.0,036.5,029.8,23.1,0000.0,0008.37,0004.81,0004.35
2023-08-17 08:12:00,SystemResetWarning,0833.9,4.99,000.00,028.1,026.9,000.0,036.5,029.9,23.1,0000.0,0008.81,0004.90,0004.42
2023-08-17 08:13:00,SystemResetWarning,0833.8,4.99,000.00,028.2,027.0,000.0,036.5,030.0,23.1,0000.0,0009.05,0004.99,0004.48
2023-08-17 08:14:00,SystemResetWarning,0833.8,5.00,000.00,028.2,027.1,000.0,036.6,030.0,23.1,0000.0,0009.23,0005.12,0004.55
2023-08-17 08:15:00,SystemResetWarning,0833.8,5.00,000.00,028.2,026.9,000.0,036.6,030.0,23.0,0000.0,0009.50,0005.26,0004.65
2023-08-17 08:16:00,SystemResetWarning,0833.8,5.00,000.00,028.2,025.3,000.0,036.5,029.7,23.0,0000.0,0009.75,0005.38,0004.74
2023-08-17 08:17:00,SystemResetWarning,0833.8,5.02,000.00,028.1,024.6,000.0,036.4,029.6,23.0,0000.0,0009.80,0005.42,0004.78
2023-08-17 08:18:00,SystemResetWarning,0833.8,5.00,000.00,028.1,024.7,000.0,036.4,029.5,23.0,0000.0,0009.74,0005.43,0004.83
2023-08-17 08:19:00,SystemResetWarning,0833.8,5.00,000.00,028.0,025.0,000.0,036.4,029.5,23.1,0000.0,0009.88,0005.51,0004.92
2023-08-17 08:20:00,SystemResetWarning,0833.8,5.00,000.00,028.0,025.4,000.0,036.5,029.6,23.2,0000.0,0010.53,0005.62,0005.02
2023-08-17 08:21:00,SystemResetWarning,0833.9,4.99,000.00,028.0,025.7,000.0,036.5,029.6,23.3,0000.0,0011.35,0005.71,0005.11
2023-08-17 08:22:00,SystemResetWarning,0833.9,5.00,000.00,028.1,026.0,000.0,036.5,029.7,23.2,0000.3,0011.48,0005.77,0005.16
2023-08-17 08:23:00,SystemResetWarning,0833.9,5.00,000.00,028.1,026.3,000.0,036.5,029.8,23.3,0000.0,0011.84,0005.80,0005.19
2023-08-17 08:24:00,SystemResetWarning,0834.0,5.00,000.00,028.1,026.5,000.0,036.5,029.8,23.2,0000.0,0011.69,0005.80,0005.21
2023-08-17 08:25:00,SystemResetWarning,0834.0,5.00,000.00,028.1,026.7,000.0,036.6,029.9,23.1,-000.2,0011.93,0005.76,0005.21
2023-08-17 08:26:00,SystemResetWarning,0833.9,5.00,000.00,028.2,026.9,000.0,036.6,030.0,23.1,0000.5,0012.14,0005.71,0005.20
2023-08-17 08:27:00,SystemResetWarning,0834.0,5.00,000.00,028.2,027.0,000.0,036.6,030.0,23.0,0000.1,0012.19,0005.69,0005.17
2023-08-17 08:28:00,SystemResetWarning,0834.0,5.00,000.00,028.3,027.1,000.0,036.6,030.0,23.0,0000.0,0012.24,0005.68,0005.14
2023-08-17 08:29:00,SystemResetWarning,0834.0,4.98,000.00,028.3,025.9,000.0,036.6,029.9,23.0,0000.0,0012.42,0005.66,0005.11
2023-08-17 08:30:00,SystemResetWarning,0833.9,5.01,000.00,028.2,024.0,000.0,036.4,029.5,23.1,0000.0,0012.26,0005.65,0005.08
2023-08-17 08:31:00,SystemResetWarning,0833.9,5.01,000.00,028.1,023.6,000.0,036.3,029.4,23.2,0000.0,0011.95,0005.64,0005.06
2023-08-17 08:32:00,SystemResetWarning,0833.8,5.01,000.00,028.0,023.9,000.0,036.4,029.3,23.4,0000.0,0011.48,0005.59,0005.04
2023-08-17 08:33:00,SystemResetWarning,0833.9,5.00,000.00,027.9,024.3,000.0,036.4,029.3,23.6,0000.0,0011.61,0005.61,0005.04
2023-08-17 08:34:00,SystemResetWarning,0834.0,5.00,000.00,027.9,024.7,000.0,036.4,029.4,23.6,0000.0,0010.93,0005.61,0005.04
2023-08-17 08:35:00,SystemResetWarning,0833.9,5.00,000.00,027.9,025.2,000.0,036.4,029.5,23.5,0000.0,0011.06,0005.62,0005.04
2023-08-17 08:36:00,SystemResetWarning,0833.9,5.00,000.00,027.9,025.5,000.0,036.4,029.5,23.5,0000.0,0011.05,0005.73,0005.13
2023-08-17 08:37:00,SystemResetWarning,0833.9,5.00,000.00,027.9,025.9,000.0,036.4,029.6,23.5,0000.0,0011.85,0005.83,0005.23
2023-08-17 08:38:00,SystemResetWarning,0833.9,5.00,000.00,027.9,026.1,000.0,036.4,029.7,23.4,0000.0,0012.38,0005.91,0005.31
2023-08-17 08:39:00,SystemResetWarning,0833.9,5.00,000.00,028.0,026.4,000.0,036.4,029.7,23.4,0000.0,0013.38,0005.99,0005.41
2023-08-17 08:40:00,SystemResetWarning,0833.9,4.99,000.00,028.0,026.6,000.0,036.5,029.8,23.3,0000.0,0013.40,0006.07,0005.47
2023-08-17 08:41:00,SystemResetWarning,0833.9,5.00,000.00,028.1,026.7,000.0,036.5,029.8,23.3,0000.0,0013.47,0006.11,0005.50
2023-08-17 08:42:00,SystemResetWarning,0833.9,5.00,000.00,028.1,026.9,000.0,036.5,029.9,23.3,0000.0,0013.85,0006.09,0005.51
2023-08-17 08:43:00,SystemResetWarning,0833.9,5.00,000.00,028.2,027.0,000.0,036.5,029.9,23.2,0000.0,0013.93,0006.15,0005.56
2023-08-17 08:44:00,SystemResetWarning,0834.0,5.01,000.00,028.2,027.1,000.0,036.6,030.0,23.1,0000.0,0014.32,0006.20,0005.60
2023-08-17 08:45:00,SystemResetWarning,0834.0,5.00,000.00,028.2,027.2,000.0,036.6,030.0,23.1,0000.0,0014.30,0006.19,0005.62
2023-08-17 08:46:00,SystemResetWarning,0834.0,4.99,000.00,028.3,027.3,000.0,036.6,030.1,23.1,0000.0,0014.31,0006.29,0005.71
2023-08-17 08:47:00,SystemResetWarning,0834.0,4.99,000.00,028.3,027.4,000.0,036.7,030.1,23.0,0000.0,0014.36,0006.37,0005.79
2023-08-17 08:48:00,SystemResetWarning,0834.0,4.99,000.00,028.3,026.5,000.0,036.6,030.0,23.0,0000.0,0013.54,0006.37,0005.82
2023-08-17 08:49:00,SystemResetWarning,0834.0,5.00,000.00,028.3,024.4,000.0,036.5,029.6,23.1,0000.0,0012.78,0006.42,0005.88
2023-08-17 08:50:00,SystemResetWarning,0833.9,5.00,000.00,028.2,023.7,000.0,036.4,029.5,23.2,0000.0,0011.64,0006.49,0005.94
2023-08-17 08:51:00,SystemResetWarning,0833.9,5.01,000.00,028.1,023.9,000.0,036.4,029.3,23.3,0000.8,0012.19,0006.55,0006.02
2023-08-17 08:52:00,SystemResetWarning,0833.9,5.00,000.00,028.0,024.3,000.0,036.4,029.3,23.5,0002.3,0012.47,0006.67,0006.14
2023-08-17 08:53:00,SystemResetWarning,0833.9,4.99,000.00,027.9,024.7,000.0,036.4,029.4,23.6,0000.8,0012.45,0006.82,0006.25
2023-08-17 08:54:00,SystemResetWarning,0834.0,5.00,000.00,027.9,025.2,000.0,036.5,029.5,23.6,0003.0,0012.01,0006.97,0006.40
2023-08-17 08:55:00,SystemResetWarning,0833.9,5.00,000.00,028.0,025.5,000.0,036.5,029.6,23.6,0000.7,0012.47,0007.14,0006.56
2023-08-17 08:56:00,SystemResetWarning,0833.9,5.00,000.00,028.0,025.9,000.0,036.5,029.6,23.6,0001.7,0012.65,0007.36,0006.75
2023-08-17 08:57:00,SystemResetWarning,0834.0,5.00,000.00,028.0,026.1,000.0,036.5,029.7,23.6,0003.2,0012.92,0007.53,0006.91
2023-08-17 08:58:00,SystemResetWarning,0833.9,5.00,000.00,028.0,026.4,000.0,036.5,029.8,23.6,0003.3,0012.98,0007.62,0006.99
2023-08-17 08:59:00,SystemResetWarning,0834.0,5.00,000.00,028.1,026.6,000.0,036.5,029.8,23.6,0003.7,0013.10,0007.75,0007.12
